<?xml version="1.0" encoding="UTF-8" standalone="no" ?>
<gpx xmlns="http://www.topografix.com/GPX/1/1" xmlns:xsi="http://www.w3.org/2001/XMLSchema-instance" xsi:schemaLocation="http://www.topografix.com/GPX/1/1 http://www.topografix.com/GPX/1/1/gpx.xsd" version="1.1" creator="VisuGPX - https://www.visugpx.com">
  <metadata>
    <name>Base VRTT Gevaudan Lagogne</name>
  </metadata>
  <trk>
    <name><![CDATA[ESI0326 - CIRCUIT DE STE GERMAINE]]></name>
    <extensions>
      <line xmlns="http://www.topografix.com/GPX/gpx_style/0/2">
        <color>f90b2f</color>
        <width>4</width>
      </line>
    </extensions>
    <trkseg>
      <trkpt lat="44.72361" lon="3.85411">
        <ele>912.67449951172</ele>
        <time>2020-10-16T08:48:31.000Z</time>
      </trkpt>
      <trkpt lat="44.72357" lon="3.85407">
        <ele>912.86871337891</ele>
        <time>2020-10-16T08:48:31.001Z</time>
      </trkpt>
      <trkpt lat="44.72319" lon="3.85363">
        <ele>914.78674316406</ele>
        <time>2020-10-16T08:48:31.012Z</time>
      </trkpt>
      <trkpt lat="44.72305" lon="3.85358">
        <ele>915.34020996094</ele>
        <time>2020-10-16T08:48:31.026Z</time>
      </trkpt>
      <trkpt lat="44.72289" lon="3.85363">
        <ele>916.31378173828</ele>
        <time>2020-10-16T08:48:31.043Z</time>
      </trkpt>
      <trkpt lat="44.72277" lon="3.85381">
        <ele>919.29058837891</ele>
        <time>2020-10-16T08:48:31.064Z</time>
      </trkpt>
      <trkpt lat="44.72271" lon="3.8542">
        <ele>922.84338378906</ele>
        <time>2020-10-16T08:48:31.090Z</time>
      </trkpt>
      <trkpt lat="44.72272" lon="3.85497">
        <ele>926.18157958984</ele>
        <time>2020-10-16T08:48:31.127Z</time>
      </trkpt>
      <trkpt lat="44.72278" lon="3.85529">
        <ele>926.26745605469</ele>
        <time>2020-10-16T08:48:31.169Z</time>
      </trkpt>
      <trkpt lat="44.72316" lon="3.85575">
        <ele>923.79595947266</ele>
        <time>2020-10-16T08:48:31.221Z</time>
      </trkpt>
      <trkpt lat="44.72331" lon="3.85622">
        <ele>925.23443603516</ele>
        <time>2020-10-16T08:48:31.280Z</time>
      </trkpt>
      <trkpt lat="44.72306" lon="3.85627">
        <ele>927.7421875</ele>
        <time>2020-10-16T08:48:31.345Z</time>
      </trkpt>
      <trkpt lat="44.72301" lon="3.85628">
        <ele>927.78076171875</ele>
        <time>2020-10-16T08:48:31.411Z</time>
      </trkpt>
      <trkpt lat="44.72249" lon="3.85564">
        <ele>930.59356689453</ele>
        <time>2020-10-16T08:48:31.490Z</time>
      </trkpt>
      <trkpt lat="44.72223" lon="3.8555">
        <ele>933.24670410156</ele>
        <time>2020-10-16T08:48:31.575Z</time>
      </trkpt>
      <trkpt lat="44.72202" lon="3.8555">
        <ele>935.41021728516</ele>
        <time>2020-10-16T08:48:31.664Z</time>
      </trkpt>
      <trkpt lat="44.72193" lon="3.85541">
        <ele>935.59765625</ele>
        <time>2020-10-16T08:48:31.755Z</time>
      </trkpt>
      <trkpt lat="44.72194" lon="3.85541">
        <ele>935.58209228516</ele>
        <time>2020-10-16T08:48:31.846Z</time>
      </trkpt>
      <trkpt lat="44.72193" lon="3.8554">
        <ele>935.60504150391</ele>
        <time>2020-10-16T08:48:31.938Z</time>
      </trkpt>
      <trkpt lat="44.72182" lon="3.85526">
        <ele>935.82427978516</ele>
        <time>2020-10-16T08:48:32.033Z</time>
      </trkpt>
      <trkpt lat="44.72164" lon="3.85508">
        <ele>935.91522216797</ele>
        <time>2020-10-16T08:48:32.132Z</time>
      </trkpt>
      <trkpt lat="44.72152" lon="3.85498">
        <ele>935.98229980469</ele>
        <time>2020-10-16T08:48:32.234Z</time>
      </trkpt>
      <trkpt lat="44.72131" lon="3.85482">
        <ele>936.16052246094</ele>
        <time>2020-10-16T08:48:32.341Z</time>
      </trkpt>
      <trkpt lat="44.72122" lon="3.85466">
        <ele>935.90100097656</ele>
        <time>2020-10-16T08:48:32.450Z</time>
      </trkpt>
      <trkpt lat="44.72109" lon="3.85445">
        <ele>934.9306640625</ele>
        <time>2020-10-16T08:48:32.563Z</time>
      </trkpt>
      <trkpt lat="44.72097" lon="3.85427">
        <ele>934.13439941406</ele>
        <time>2020-10-16T08:48:32.680Z</time>
      </trkpt>
      <trkpt lat="44.72081" lon="3.85408">
        <ele>933.28936767578</ele>
        <time>2020-10-16T08:48:32.801Z</time>
      </trkpt>
      <trkpt lat="44.7207" lon="3.854">
        <ele>932.84057617188</ele>
        <time>2020-10-16T08:48:32.925Z</time>
      </trkpt>
      <trkpt lat="44.72054" lon="3.85391">
        <ele>932.23413085938</ele>
        <time>2020-10-16T08:48:33.052Z</time>
      </trkpt>
      <trkpt lat="44.7203" lon="3.85374">
        <ele>931.92236328125</ele>
        <time>2020-10-16T08:48:33.184Z</time>
      </trkpt>
      <trkpt lat="44.72007" lon="3.85364">
        <ele>933.36431884766</ele>
        <time>2020-10-16T08:48:33.321Z</time>
      </trkpt>
      <trkpt lat="44.71988" lon="3.85355">
        <ele>934.53216552734</ele>
        <time>2020-10-16T08:48:33.462Z</time>
      </trkpt>
      <trkpt lat="44.71978" lon="3.85354">
        <ele>935.31146240234</ele>
        <time>2020-10-16T08:48:33.605Z</time>
      </trkpt>
      <trkpt lat="44.71961" lon="3.85353">
        <ele>936.53479003906</ele>
        <time>2020-10-16T08:48:33.752Z</time>
      </trkpt>
      <trkpt lat="44.71943" lon="3.85351">
        <ele>937.84967041016</ele>
        <time>2020-10-16T08:48:33.902Z</time>
      </trkpt>
      <trkpt lat="44.71926" lon="3.85352">
        <ele>939.23968505859</ele>
        <time>2020-10-16T08:48:34.056Z</time>
      </trkpt>
      <trkpt lat="44.71903" lon="3.85353">
        <ele>941.23486328125</ele>
        <time>2020-10-16T08:48:34.214Z</time>
      </trkpt>
      <trkpt lat="44.71895" lon="3.85349">
        <ele>941.87286376953</ele>
        <time>2020-10-16T08:48:34.374Z</time>
      </trkpt>
      <trkpt lat="44.71884" lon="3.85338">
        <ele>942.60809326172</ele>
        <time>2020-10-16T08:48:34.537Z</time>
      </trkpt>
      <trkpt lat="44.71868" lon="3.8532">
        <ele>943.75677490234</ele>
        <time>2020-10-16T08:48:34.704Z</time>
      </trkpt>
      <trkpt lat="44.71854" lon="3.85312">
        <ele>945.02374267578</ele>
        <time>2020-10-16T08:48:34.874Z</time>
      </trkpt>
      <trkpt lat="44.71842" lon="3.85311">
        <ele>946.18115234375</ele>
        <time>2020-10-16T08:48:35.046Z</time>
      </trkpt>
      <trkpt lat="44.7182" lon="3.85314">
        <ele>948.11016845703</ele>
        <time>2020-10-16T08:48:35.223Z</time>
      </trkpt>
      <trkpt lat="44.71807" lon="3.85312">
        <ele>949.0556640625</ele>
        <time>2020-10-16T08:48:35.402Z</time>
      </trkpt>
      <trkpt lat="44.71793" lon="3.85311">
        <ele>950.09851074219</ele>
        <time>2020-10-16T08:48:35.584Z</time>
      </trkpt>
      <trkpt lat="44.71778" lon="3.85307">
        <ele>951.25317382812</ele>
        <time>2020-10-16T08:48:35.769Z</time>
      </trkpt>
      <trkpt lat="44.71763" lon="3.85305">
        <ele>952.35333251953</ele>
        <time>2020-10-16T08:48:35.957Z</time>
      </trkpt>
      <trkpt lat="44.71747" lon="3.85304">
        <ele>953.53656005859</ele>
        <time>2020-10-16T08:48:36.148Z</time>
      </trkpt>
      <trkpt lat="44.71725" lon="3.85305">
        <ele>955.34210205078</ele>
        <time>2020-10-16T08:48:36.344Z</time>
      </trkpt>
      <trkpt lat="44.71719" lon="3.85307">
        <ele>955.95861816406</ele>
        <time>2020-10-16T08:48:36.541Z</time>
      </trkpt>
      <trkpt lat="44.71707" lon="3.8531">
        <ele>957.13732910156</ele>
        <time>2020-10-16T08:48:36.740Z</time>
      </trkpt>
      <trkpt lat="44.71685" lon="3.8532">
        <ele>959.84692382812</ele>
        <time>2020-10-16T08:48:36.944Z</time>
      </trkpt>
      <trkpt lat="44.71641" lon="3.85348">
        <ele>964.07641601562</ele>
        <time>2020-10-16T08:48:37.158Z</time>
      </trkpt>
      <trkpt lat="44.71625" lon="3.85357">
        <ele>965.486328125</ele>
        <time>2020-10-16T08:48:37.375Z</time>
      </trkpt>
      <trkpt lat="44.7161" lon="3.85361">
        <ele>966.65472412109</ele>
        <time>2020-10-16T08:48:37.595Z</time>
      </trkpt>
      <trkpt lat="44.71597" lon="3.85363">
        <ele>967.52099609375</ele>
        <time>2020-10-16T08:48:37.818Z</time>
      </trkpt>
      <trkpt lat="44.71589" lon="3.85362">
        <ele>968.07958984375</ele>
        <time>2020-10-16T08:48:38.042Z</time>
      </trkpt>
      <trkpt lat="44.71559" lon="3.85359">
        <ele>970.365234375</ele>
        <time>2020-10-16T08:48:38.273Z</time>
      </trkpt>
      <trkpt lat="44.71543" lon="3.85359">
        <ele>971.49328613281</ele>
        <time>2020-10-16T08:48:38.507Z</time>
      </trkpt>
      <trkpt lat="44.71536" lon="3.8536">
        <ele>971.87927246094</ele>
        <time>2020-10-16T08:48:38.742Z</time>
      </trkpt>
      <trkpt lat="44.71533" lon="3.8536">
        <ele>971.91027832031</ele>
        <time>2020-10-16T08:48:38.978Z</time>
      </trkpt>
      <trkpt lat="44.71514" lon="3.85364">
        <ele>971.99273681641</ele>
        <time>2020-10-16T08:48:39.217Z</time>
      </trkpt>
      <trkpt lat="44.71514" lon="3.85364">
        <ele>971.99304199219</ele>
        <time>2020-10-16T08:48:39.456Z</time>
      </trkpt>
      <trkpt lat="44.71504" lon="3.85367">
        <ele>972.00604248047</ele>
        <time>2020-10-16T08:48:39.698Z</time>
      </trkpt>
      <trkpt lat="44.71487" lon="3.85341">
        <ele>973.15881347656</ele>
        <time>2020-10-16T08:48:39.945Z</time>
      </trkpt>
      <trkpt lat="44.71474" lon="3.85323">
        <ele>973.94360351562</ele>
        <time>2020-10-16T08:48:40.195Z</time>
      </trkpt>
      <trkpt lat="44.71464" lon="3.85312">
        <ele>974.46740722656</ele>
        <time>2020-10-16T08:48:40.448Z</time>
      </trkpt>
      <trkpt lat="44.71441" lon="3.85293">
        <ele>975.89331054688</ele>
        <time>2020-10-16T08:48:40.706Z</time>
      </trkpt>
      <trkpt lat="44.71405" lon="3.85264">
        <ele>978.87628173828</ele>
        <time>2020-10-16T08:48:40.972Z</time>
      </trkpt>
      <trkpt lat="44.71361" lon="3.85226">
        <ele>982.79565429688</ele>
        <time>2020-10-16T08:48:41.249Z</time>
      </trkpt>
      <trkpt lat="44.71348" lon="3.85215">
        <ele>983.43646240234</ele>
        <time>2020-10-16T08:48:41.529Z</time>
      </trkpt>
      <trkpt lat="44.71307" lon="3.85182">
        <ele>985.4521484375</ele>
        <time>2020-10-16T08:48:41.818Z</time>
      </trkpt>
      <trkpt lat="44.71286" lon="3.85163">
        <ele>986.537109375</ele>
        <time>2020-10-16T08:48:42.112Z</time>
      </trkpt>
      <trkpt lat="44.71271" lon="3.85146">
        <ele>986.84985351562</ele>
        <time>2020-10-16T08:48:42.410Z</time>
      </trkpt>
      <trkpt lat="44.71257" lon="3.85122">
        <ele>987.59814453125</ele>
        <time>2020-10-16T08:48:42.712Z</time>
      </trkpt>
      <trkpt lat="44.71229" lon="3.85066">
        <ele>990.07537841797</ele>
        <time>2020-10-16T08:48:43.024Z</time>
      </trkpt>
      <trkpt lat="44.71212" lon="3.85036">
        <ele>991.47381591797</ele>
        <time>2020-10-16T08:48:43.342Z</time>
      </trkpt>
      <trkpt lat="44.71195" lon="3.8501">
        <ele>993.60821533203</ele>
        <time>2020-10-16T08:48:43.665Z</time>
      </trkpt>
      <trkpt lat="44.71182" lon="3.84991">
        <ele>995.99310302734</ele>
        <time>2020-10-16T08:48:43.992Z</time>
      </trkpt>
      <trkpt lat="44.71169" lon="3.84977">
        <ele>998.05084228516</ele>
        <time>2020-10-16T08:48:44.322Z</time>
      </trkpt>
      <trkpt lat="44.71157" lon="3.84967">
        <ele>999.77081298828</ele>
        <time>2020-10-16T08:48:44.655Z</time>
      </trkpt>
      <trkpt lat="44.71144" lon="3.84963">
        <ele>1001.3049926758</ele>
        <time>2020-10-16T08:48:44.990Z</time>
      </trkpt>
      <trkpt lat="44.71072" lon="3.84958">
        <ele>1007.6740722656</ele>
        <time>2020-10-16T08:48:45.340Z</time>
      </trkpt>
      <trkpt lat="44.71054" lon="3.84952">
        <ele>1009.6553955078</ele>
        <time>2020-10-16T08:48:45.693Z</time>
      </trkpt>
      <trkpt lat="44.71038" lon="3.84945">
        <ele>1011.3884277344</ele>
        <time>2020-10-16T08:48:46.050Z</time>
      </trkpt>
      <trkpt lat="44.71018" lon="3.84941">
        <ele>1012.4759521484</ele>
        <time>2020-10-16T08:48:46.411Z</time>
      </trkpt>
      <trkpt lat="44.70996" lon="3.84942">
        <ele>1013.1775512695</ele>
        <time>2020-10-16T08:48:46.776Z</time>
      </trkpt>
      <trkpt lat="44.70979" lon="3.84942">
        <ele>1013.876159668</ele>
        <time>2020-10-16T08:48:47.145Z</time>
      </trkpt>
      <trkpt lat="44.70958" lon="3.84938">
        <ele>1014.8801269531</ele>
        <time>2020-10-16T08:48:47.518Z</time>
      </trkpt>
      <trkpt lat="44.70928" lon="3.84931">
        <ele>1015.935546875</ele>
        <time>2020-10-16T08:48:47.897Z</time>
      </trkpt>
      <trkpt lat="44.7091" lon="3.84925">
        <ele>1016.5719604492</ele>
        <time>2020-10-16T08:48:48.280Z</time>
      </trkpt>
      <trkpt lat="44.70884" lon="3.84913">
        <ele>1017.5048828125</ele>
        <time>2020-10-16T08:48:48.668Z</time>
      </trkpt>
      <trkpt lat="44.70836" lon="3.84887">
        <ele>1019.2211303711</ele>
        <time>2020-10-16T08:48:49.066Z</time>
      </trkpt>
      <trkpt lat="44.70806" lon="3.84872">
        <ele>1020.323059082</ele>
        <time>2020-10-16T08:48:49.471Z</time>
      </trkpt>
      <trkpt lat="44.70793" lon="3.84866">
        <ele>1020.7415161133</ele>
        <time>2020-10-16T08:48:49.879Z</time>
      </trkpt>
      <trkpt lat="44.70783" lon="3.84858">
        <ele>1020.8765258789</ele>
        <time>2020-10-16T08:48:50.289Z</time>
      </trkpt>
      <trkpt lat="44.70778" lon="3.84851">
        <ele>1021.1684570312</ele>
        <time>2020-10-16T08:48:50.700Z</time>
      </trkpt>
      <trkpt lat="44.70771" lon="3.84846">
        <ele>1021.4108886719</ele>
        <time>2020-10-16T08:48:51.113Z</time>
      </trkpt>
      <trkpt lat="44.70758" lon="3.84842">
        <ele>1021.4662475586</ele>
        <time>2020-10-16T08:48:51.528Z</time>
      </trkpt>
      <trkpt lat="44.70703" lon="3.84823">
        <ele>1021.7304077148</ele>
        <time>2020-10-16T08:48:51.955Z</time>
      </trkpt>
      <trkpt lat="44.70683" lon="3.84811">
        <ele>1022.2338256836</ele>
        <time>2020-10-16T08:48:52.386Z</time>
      </trkpt>
      <trkpt lat="44.70646" lon="3.84788">
        <ele>1023.3257446289</ele>
        <time>2020-10-16T08:48:52.825Z</time>
      </trkpt>
      <trkpt lat="44.70616" lon="3.84771">
        <ele>1023.9774169922</ele>
        <time>2020-10-16T08:48:53.271Z</time>
      </trkpt>
      <trkpt lat="44.70616" lon="3.8477">
        <ele>1023.9762573242</ele>
        <time>2020-10-16T08:48:53.717Z</time>
      </trkpt>
      <trkpt lat="44.70567" lon="3.84746">
        <ele>1023.6926879883</ele>
        <time>2020-10-16T08:48:54.173Z</time>
      </trkpt>
      <trkpt lat="44.70548" lon="3.8474">
        <ele>1023.4531860352</ele>
        <time>2020-10-16T08:48:54.633Z</time>
      </trkpt>
      <trkpt lat="44.70534" lon="3.84739">
        <ele>1022.8668212891</ele>
        <time>2020-10-16T08:48:55.096Z</time>
      </trkpt>
      <trkpt lat="44.70508" lon="3.84742">
        <ele>1019.9776000977</ele>
        <time>2020-10-16T08:48:55.564Z</time>
      </trkpt>
      <trkpt lat="44.70489" lon="3.84745">
        <ele>1019.7651367188</ele>
        <time>2020-10-16T08:48:56.036Z</time>
      </trkpt>
      <trkpt lat="44.70467" lon="3.8475">
        <ele>1019.829284668</ele>
        <time>2020-10-16T08:48:56.512Z</time>
      </trkpt>
      <trkpt lat="44.70438" lon="3.84759">
        <ele>1019.3362426758</ele>
        <time>2020-10-16T08:48:56.994Z</time>
      </trkpt>
      <trkpt lat="44.70424" lon="3.84764">
        <ele>1019.2125244141</ele>
        <time>2020-10-16T08:48:57.479Z</time>
      </trkpt>
      <trkpt lat="44.70407" lon="3.84768">
        <ele>1018.9418334961</ele>
        <time>2020-10-16T08:48:57.968Z</time>
      </trkpt>
      <trkpt lat="44.7039" lon="3.84771">
        <ele>1018.5821533203</ele>
        <time>2020-10-16T08:48:58.460Z</time>
      </trkpt>
      <trkpt lat="44.70345" lon="3.84775">
        <ele>1017.9729614258</ele>
        <time>2020-10-16T08:48:58.961Z</time>
      </trkpt>
      <trkpt lat="44.70289" lon="3.84779">
        <ele>1018.0180053711</ele>
        <time>2020-10-16T08:48:59.473Z</time>
      </trkpt>
      <trkpt lat="44.70262" lon="3.84784">
        <ele>1019.6409301758</ele>
        <time>2020-10-16T08:48:59.991Z</time>
      </trkpt>
      <trkpt lat="44.70234" lon="3.84788">
        <ele>1021.3457641602</ele>
        <time>2020-10-16T08:49:00.514Z</time>
      </trkpt>
      <trkpt lat="44.7019" lon="3.84794">
        <ele>1023.0939941406</ele>
        <time>2020-10-16T08:49:01.046Z</time>
      </trkpt>
      <trkpt lat="44.70146" lon="3.84797">
        <ele>1022.6087036133</ele>
        <time>2020-10-16T08:49:01.587Z</time>
      </trkpt>
      <trkpt lat="44.70131" lon="3.84796">
        <ele>1022.259765625</ele>
        <time>2020-10-16T08:49:02.131Z</time>
      </trkpt>
      <trkpt lat="44.70022" lon="3.84768">
        <ele>1019.6616210938</ele>
        <time>2020-10-16T08:49:02.697Z</time>
      </trkpt>
      <trkpt lat="44.70003" lon="3.84766">
        <ele>1019.5396118164</ele>
        <time>2020-10-16T08:49:03.267Z</time>
      </trkpt>
      <trkpt lat="44.69961" lon="3.84764">
        <ele>1019.4225463867</ele>
        <time>2020-10-16T08:49:03.845Z</time>
      </trkpt>
      <trkpt lat="44.69875" lon="3.84761">
        <ele>1024.26953125</ele>
        <time>2020-10-16T08:49:04.440Z</time>
      </trkpt>
      <trkpt lat="44.69878" lon="3.84747">
        <ele>1023.5989990234</ele>
        <time>2020-10-16T08:49:05.038Z</time>
      </trkpt>
      <trkpt lat="44.69879" lon="3.84732">
        <ele>1023.0002441406</ele>
        <time>2020-10-16T08:49:05.638Z</time>
      </trkpt>
      <trkpt lat="44.69879" lon="3.84709">
        <ele>1022.16015625</ele>
        <time>2020-10-16T08:49:06.241Z</time>
      </trkpt>
      <trkpt lat="44.69878" lon="3.84677">
        <ele>1020.6262817383</ele>
        <time>2020-10-16T08:49:06.849Z</time>
      </trkpt>
      <trkpt lat="44.69876" lon="3.8465">
        <ele>1019.6038818359</ele>
        <time>2020-10-16T08:49:07.460Z</time>
      </trkpt>
      <trkpt lat="44.69871" lon="3.84625">
        <ele>1018.8473510742</ele>
        <time>2020-10-16T08:49:08.075Z</time>
      </trkpt>
      <trkpt lat="44.69866" lon="3.84607">
        <ele>1018.8659057617</ele>
        <time>2020-10-16T08:49:08.693Z</time>
      </trkpt>
      <trkpt lat="44.69862" lon="3.84586">
        <ele>1019.0927734375</ele>
        <time>2020-10-16T08:49:09.314Z</time>
      </trkpt>
      <trkpt lat="44.69866" lon="3.84564">
        <ele>1018.5950927734</ele>
        <time>2020-10-16T08:49:09.938Z</time>
      </trkpt>
      <trkpt lat="44.69882" lon="3.8452">
        <ele>1016.2982788086</ele>
        <time>2020-10-16T08:49:10.569Z</time>
      </trkpt>
      <trkpt lat="44.69891" lon="3.84497">
        <ele>1016.5848999023</ele>
        <time>2020-10-16T08:49:11.204Z</time>
      </trkpt>
      <trkpt lat="44.69894" lon="3.84485">
        <ele>1016.977355957</ele>
        <time>2020-10-16T08:49:11.841Z</time>
      </trkpt>
      <trkpt lat="44.69896" lon="3.84472">
        <ele>1017.6040649414</ele>
        <time>2020-10-16T08:49:12.480Z</time>
      </trkpt>
      <trkpt lat="44.699" lon="3.84446">
        <ele>1019.153503418</ele>
        <time>2020-10-16T08:49:13.122Z</time>
      </trkpt>
      <trkpt lat="44.69902" lon="3.84436">
        <ele>1019.5204467773</ele>
        <time>2020-10-16T08:49:13.766Z</time>
      </trkpt>
      <trkpt lat="44.6991" lon="3.84416">
        <ele>1019.3466186523</ele>
        <time>2020-10-16T08:49:14.413Z</time>
      </trkpt>
      <trkpt lat="44.69918" lon="3.84397">
        <ele>1019.1341552734</ele>
        <time>2020-10-16T08:49:15.063Z</time>
      </trkpt>
      <trkpt lat="44.69927" lon="3.84378">
        <ele>1019.151550293</ele>
        <time>2020-10-16T08:49:15.717Z</time>
      </trkpt>
      <trkpt lat="44.69934" lon="3.84359">
        <ele>1019.3822021484</ele>
        <time>2020-10-16T08:49:16.374Z</time>
      </trkpt>
      <trkpt lat="44.69939" lon="3.84332">
        <ele>1018.8707275391</ele>
        <time>2020-10-16T08:49:17.035Z</time>
      </trkpt>
      <trkpt lat="44.69945" lon="3.84309">
        <ele>1019.3161621094</ele>
        <time>2020-10-16T08:49:17.699Z</time>
      </trkpt>
      <trkpt lat="44.69945" lon="3.84293">
        <ele>1019.8560791016</ele>
        <time>2020-10-16T08:49:18.366Z</time>
      </trkpt>
      <trkpt lat="44.69942" lon="3.84275">
        <ele>1020.7135620117</ele>
        <time>2020-10-16T08:49:19.035Z</time>
      </trkpt>
      <trkpt lat="44.69938" lon="3.84251">
        <ele>1020.0584716797</ele>
        <time>2020-10-16T08:49:19.708Z</time>
      </trkpt>
      <trkpt lat="44.69936" lon="3.84234">
        <ele>1019.7116699219</ele>
        <time>2020-10-16T08:49:20.383Z</time>
      </trkpt>
      <trkpt lat="44.69936" lon="3.84217">
        <ele>1019.2970581055</ele>
        <time>2020-10-16T08:49:21.061Z</time>
      </trkpt>
      <trkpt lat="44.69938" lon="3.84201">
        <ele>1018.823425293</ele>
        <time>2020-10-16T08:49:21.741Z</time>
      </trkpt>
      <trkpt lat="44.69943" lon="3.84185">
        <ele>1017.8571777344</ele>
        <time>2020-10-16T08:49:22.423Z</time>
      </trkpt>
      <trkpt lat="44.69951" lon="3.84171">
        <ele>1016.7939453125</ele>
        <time>2020-10-16T08:49:23.108Z</time>
      </trkpt>
      <trkpt lat="44.69956" lon="3.84163">
        <ele>1016.2537231445</ele>
        <time>2020-10-16T08:49:23.794Z</time>
      </trkpt>
      <trkpt lat="44.69964" lon="3.84156">
        <ele>1015.346862793</ele>
        <time>2020-10-16T08:49:24.482Z</time>
      </trkpt>
      <trkpt lat="44.69962" lon="3.84137">
        <ele>1014.4071655273</ele>
        <time>2020-10-16T08:49:25.173Z</time>
      </trkpt>
      <trkpt lat="44.69956" lon="3.84124">
        <ele>1013.9206542969</ele>
        <time>2020-10-16T08:49:25.866Z</time>
      </trkpt>
      <trkpt lat="44.69947" lon="3.84107">
        <ele>1012.8631591797</ele>
        <time>2020-10-16T08:49:26.562Z</time>
      </trkpt>
      <trkpt lat="44.69939" lon="3.8409">
        <ele>1010.8395385742</ele>
        <time>2020-10-16T08:49:27.261Z</time>
      </trkpt>
      <trkpt lat="44.69928" lon="3.84073">
        <ele>1008.9356689453</ele>
        <time>2020-10-16T08:49:27.963Z</time>
      </trkpt>
      <trkpt lat="44.6992" lon="3.84069">
        <ele>1008.0407714844</ele>
        <time>2020-10-16T08:49:28.667Z</time>
      </trkpt>
      <trkpt lat="44.69901" lon="3.84065">
        <ele>1006.7416381836</ele>
        <time>2020-10-16T08:49:29.375Z</time>
      </trkpt>
      <trkpt lat="44.69888" lon="3.84065">
        <ele>1006.2151489258</ele>
        <time>2020-10-16T08:49:30.086Z</time>
      </trkpt>
      <trkpt lat="44.69876" lon="3.84064">
        <ele>1005.688659668</ele>
        <time>2020-10-16T08:49:30.799Z</time>
      </trkpt>
      <trkpt lat="44.69858" lon="3.84055">
        <ele>1004.9650268555</ele>
        <time>2020-10-16T08:49:31.516Z</time>
      </trkpt>
      <trkpt lat="44.69843" lon="3.84043">
        <ele>1004.1567993164</ele>
        <time>2020-10-16T08:49:32.236Z</time>
      </trkpt>
      <trkpt lat="44.69832" lon="3.84025">
        <ele>1002.6838378906</ele>
        <time>2020-10-16T08:49:32.960Z</time>
      </trkpt>
      <trkpt lat="44.69822" lon="3.84008">
        <ele>1000.8703613281</ele>
        <time>2020-10-16T08:49:33.687Z</time>
      </trkpt>
      <trkpt lat="44.69808" lon="3.83994">
        <ele>999.52502441406</ele>
        <time>2020-10-16T08:49:34.417Z</time>
      </trkpt>
      <trkpt lat="44.69796" lon="3.83976">
        <ele>997.57653808594</ele>
        <time>2020-10-16T08:49:35.151Z</time>
      </trkpt>
      <trkpt lat="44.69794" lon="3.83973">
        <ele>997.19702148438</ele>
        <time>2020-10-16T08:49:35.885Z</time>
      </trkpt>
      <trkpt lat="44.69791" lon="3.83971">
        <ele>997.01257324219</ele>
        <time>2020-10-16T08:49:36.620Z</time>
      </trkpt>
      <trkpt lat="44.69788" lon="3.83968">
        <ele>996.81597900391</ele>
        <time>2020-10-16T08:49:37.356Z</time>
      </trkpt>
      <trkpt lat="44.69772" lon="3.8396">
        <ele>994.72857666016</ele>
        <time>2020-10-16T08:49:38.095Z</time>
      </trkpt>
      <trkpt lat="44.69756" lon="3.83955">
        <ele>992.93377685547</ele>
        <time>2020-10-16T08:49:38.837Z</time>
      </trkpt>
      <trkpt lat="44.69737" lon="3.83947">
        <ele>990.46411132812</ele>
        <time>2020-10-16T08:49:39.583Z</time>
      </trkpt>
      <trkpt lat="44.69724" lon="3.83943">
        <ele>988.97564697266</ele>
        <time>2020-10-16T08:49:40.332Z</time>
      </trkpt>
      <trkpt lat="44.69714" lon="3.83939">
        <ele>987.71807861328</ele>
        <time>2020-10-16T08:49:41.083Z</time>
      </trkpt>
      <trkpt lat="44.69702" lon="3.83935">
        <ele>986.40850830078</ele>
        <time>2020-10-16T08:49:41.837Z</time>
      </trkpt>
      <trkpt lat="44.69702" lon="3.83935">
        <ele>986.30133056641</ele>
        <time>2020-10-16T08:49:42.591Z</time>
      </trkpt>
      <trkpt lat="44.69685" lon="3.83931">
        <ele>983.99719238281</ele>
        <time>2020-10-16T08:49:43.348Z</time>
      </trkpt>
      <trkpt lat="44.69676" lon="3.83929">
        <ele>982.73431396484</ele>
        <time>2020-10-16T08:49:44.107Z</time>
      </trkpt>
      <trkpt lat="44.69658" lon="3.83931">
        <ele>980.77496337891</ele>
        <time>2020-10-16T08:49:44.870Z</time>
      </trkpt>
      <trkpt lat="44.6964" lon="3.83937">
        <ele>979.13946533203</ele>
        <time>2020-10-16T08:49:45.636Z</time>
      </trkpt>
      <trkpt lat="44.69626" lon="3.83938">
        <ele>977.55505371094</ele>
        <time>2020-10-16T08:49:46.405Z</time>
      </trkpt>
      <trkpt lat="44.69625" lon="3.83938">
        <ele>977.50946044922</ele>
        <time>2020-10-16T08:49:47.174Z</time>
      </trkpt>
      <trkpt lat="44.69623" lon="3.83929">
        <ele>976.42364501953</ele>
        <time>2020-10-16T08:49:47.944Z</time>
      </trkpt>
      <trkpt lat="44.69626" lon="3.83913">
        <ele>975.17388916016</ele>
        <time>2020-10-16T08:49:48.717Z</time>
      </trkpt>
      <trkpt lat="44.69635" lon="3.83893">
        <ele>974.30828857422</ele>
        <time>2020-10-16T08:49:49.493Z</time>
      </trkpt>
      <trkpt lat="44.69657" lon="3.83857">
        <ele>972.80029296875</ele>
        <time>2020-10-16T08:49:50.276Z</time>
      </trkpt>
      <trkpt lat="44.6967" lon="3.8384">
        <ele>973.40704345703</ele>
        <time>2020-10-16T08:49:51.062Z</time>
      </trkpt>
      <trkpt lat="44.69685" lon="3.83829">
        <ele>973.83807373047</ele>
        <time>2020-10-16T08:49:51.852Z</time>
      </trkpt>
      <trkpt lat="44.69703" lon="3.8382">
        <ele>972.66735839844</ele>
        <time>2020-10-16T08:49:52.646Z</time>
      </trkpt>
      <trkpt lat="44.69708" lon="3.83817">
        <ele>972.54345703125</ele>
        <time>2020-10-16T08:49:53.441Z</time>
      </trkpt>
      <trkpt lat="44.69716" lon="3.8381">
        <ele>972.0234375</ele>
        <time>2020-10-16T08:49:54.238Z</time>
      </trkpt>
      <trkpt lat="44.69718" lon="3.8381">
        <ele>972.00952148438</ele>
        <time>2020-10-16T08:49:55.035Z</time>
      </trkpt>
      <trkpt lat="44.69719" lon="3.83792">
        <ele>969.89666748047</ele>
        <time>2020-10-16T08:49:55.835Z</time>
      </trkpt>
      <trkpt lat="44.69713" lon="3.83783">
        <ele>968.66607666016</ele>
        <time>2020-10-16T08:49:56.636Z</time>
      </trkpt>
      <trkpt lat="44.69699" lon="3.83771">
        <ele>967.17120361328</ele>
        <time>2020-10-16T08:49:57.441Z</time>
      </trkpt>
      <trkpt lat="44.69688" lon="3.8377">
        <ele>967.20654296875</ele>
        <time>2020-10-16T08:49:58.248Z</time>
      </trkpt>
      <trkpt lat="44.69677" lon="3.8377">
        <ele>967.24194335938</ele>
        <time>2020-10-16T08:49:59.057Z</time>
      </trkpt>
      <trkpt lat="44.69669" lon="3.83769">
        <ele>967.31121826172</ele>
        <time>2020-10-16T08:49:59.868Z</time>
      </trkpt>
      <trkpt lat="44.69661" lon="3.83756">
        <ele>968.59173583984</ele>
        <time>2020-10-16T08:50:00.681Z</time>
      </trkpt>
      <trkpt lat="44.69656" lon="3.83744">
        <ele>969.71813964844</ele>
        <time>2020-10-16T08:50:01.496Z</time>
      </trkpt>
      <trkpt lat="44.69655" lon="3.83742">
        <ele>969.94635009766</ele>
        <time>2020-10-16T08:50:02.311Z</time>
      </trkpt>
      <trkpt lat="44.6965" lon="3.83726">
        <ele>971.49243164062</ele>
        <time>2020-10-16T08:50:03.129Z</time>
      </trkpt>
      <trkpt lat="44.69657" lon="3.83701">
        <ele>970.26879882812</ele>
        <time>2020-10-16T08:50:03.951Z</time>
      </trkpt>
      <trkpt lat="44.69671" lon="3.83684">
        <ele>967.24719238281</ele>
        <time>2020-10-16T08:50:04.777Z</time>
      </trkpt>
      <trkpt lat="44.69682" lon="3.83669">
        <ele>964.65795898438</ele>
        <time>2020-10-16T08:50:05.606Z</time>
      </trkpt>
      <trkpt lat="44.69685" lon="3.83652">
        <ele>962.54565429688</ele>
        <time>2020-10-16T08:50:06.437Z</time>
      </trkpt>
      <trkpt lat="44.6968" lon="3.83642">
        <ele>962.41790771484</ele>
        <time>2020-10-16T08:50:07.270Z</time>
      </trkpt>
      <trkpt lat="44.69664" lon="3.83636">
        <ele>964.54095458984</ele>
        <time>2020-10-16T08:50:08.106Z</time>
      </trkpt>
      <trkpt lat="44.69646" lon="3.83618">
        <ele>965.86993408203</ele>
        <time>2020-10-16T08:50:08.947Z</time>
      </trkpt>
      <trkpt lat="44.6963" lon="3.83598">
        <ele>966.63098144531</ele>
        <time>2020-10-16T08:50:09.792Z</time>
      </trkpt>
      <trkpt lat="44.69624" lon="3.83582">
        <ele>966.33782958984</ele>
        <time>2020-10-16T08:50:10.639Z</time>
      </trkpt>
      <trkpt lat="44.69618" lon="3.83567">
        <ele>966.06823730469</ele>
        <time>2020-10-16T08:50:11.489Z</time>
      </trkpt>
      <trkpt lat="44.69609" lon="3.83538">
        <ele>965.24078369141</ele>
        <time>2020-10-16T08:50:12.343Z</time>
      </trkpt>
      <trkpt lat="44.69601" lon="3.8351">
        <ele>965.28594970703</ele>
        <time>2020-10-16T08:50:13.202Z</time>
      </trkpt>
      <trkpt lat="44.69592" lon="3.83482">
        <ele>966.33508300781</ele>
        <time>2020-10-16T08:50:14.065Z</time>
      </trkpt>
      <trkpt lat="44.69584" lon="3.83454">
        <ele>967.30090332031</ele>
        <time>2020-10-16T08:50:14.932Z</time>
      </trkpt>
      <trkpt lat="44.69588" lon="3.83442">
        <ele>966.3037109375</ele>
        <time>2020-10-16T08:50:15.801Z</time>
      </trkpt>
      <trkpt lat="44.69584" lon="3.83439">
        <ele>966.95660400391</ele>
        <time>2020-10-16T08:50:16.671Z</time>
      </trkpt>
      <trkpt lat="44.6958" lon="3.83431">
        <ele>967.34313964844</ele>
        <time>2020-10-16T08:50:17.542Z</time>
      </trkpt>
      <trkpt lat="44.69576" lon="3.83412">
        <ele>967.47845458984</ele>
        <time>2020-10-16T08:50:18.416Z</time>
      </trkpt>
      <trkpt lat="44.69569" lon="3.83392">
        <ele>968.0615234375</ele>
        <time>2020-10-16T08:50:19.293Z</time>
      </trkpt>
      <trkpt lat="44.69564" lon="3.83381">
        <ele>968.70947265625</ele>
        <time>2020-10-16T08:50:20.172Z</time>
      </trkpt>
      <trkpt lat="44.69557" lon="3.83368">
        <ele>969.87957763672</ele>
        <time>2020-10-16T08:50:21.054Z</time>
      </trkpt>
      <trkpt lat="44.69545" lon="3.83355">
        <ele>971.78002929688</ele>
        <time>2020-10-16T08:50:21.939Z</time>
      </trkpt>
      <trkpt lat="44.6951" lon="3.83326">
        <ele>969.79095458984</ele>
        <time>2020-10-16T08:50:22.832Z</time>
      </trkpt>
      <trkpt lat="44.69497" lon="3.83316">
        <ele>968.80334472656</ele>
        <time>2020-10-16T08:50:23.728Z</time>
      </trkpt>
      <trkpt lat="44.69488" lon="3.83313">
        <ele>968.98895263672</ele>
        <time>2020-10-16T08:50:24.626Z</time>
      </trkpt>
      <trkpt lat="44.69479" lon="3.83311">
        <ele>969.55804443359</ele>
        <time>2020-10-16T08:50:25.525Z</time>
      </trkpt>
      <trkpt lat="44.6947" lon="3.83311">
        <ele>970.49847412109</ele>
        <time>2020-10-16T08:50:26.426Z</time>
      </trkpt>
      <trkpt lat="44.69461" lon="3.83312">
        <ele>971.70648193359</ele>
        <time>2020-10-16T08:50:27.329Z</time>
      </trkpt>
      <trkpt lat="44.69452" lon="3.83316">
        <ele>973.43572998047</ele>
        <time>2020-10-16T08:50:28.234Z</time>
      </trkpt>
      <trkpt lat="44.69442" lon="3.83324">
        <ele>974.95758056641</ele>
        <time>2020-10-16T08:50:29.141Z</time>
      </trkpt>
      <trkpt lat="44.694" lon="3.8336">
        <ele>982.10931396484</ele>
        <time>2020-10-16T08:50:30.058Z</time>
      </trkpt>
      <trkpt lat="44.69368" lon="3.83385">
        <ele>986.38177490234</ele>
        <time>2020-10-16T08:50:30.982Z</time>
      </trkpt>
      <trkpt lat="44.6936" lon="3.83393">
        <ele>987.32788085938</ele>
        <time>2020-10-16T08:50:31.908Z</time>
      </trkpt>
      <trkpt lat="44.69352" lon="3.83406">
        <ele>989.02105712891</ele>
        <time>2020-10-16T08:50:32.837Z</time>
      </trkpt>
      <trkpt lat="44.69339" lon="3.83434">
        <ele>993.42120361328</ele>
        <time>2020-10-16T08:50:33.771Z</time>
      </trkpt>
      <trkpt lat="44.69322" lon="3.83468">
        <ele>994.75262451172</ele>
        <time>2020-10-16T08:50:34.710Z</time>
      </trkpt>
      <trkpt lat="44.69312" lon="3.83484">
        <ele>996.30310058594</ele>
        <time>2020-10-16T08:50:35.653Z</time>
      </trkpt>
      <trkpt lat="44.69301" lon="3.83497">
        <ele>997.78900146484</ele>
        <time>2020-10-16T08:50:36.598Z</time>
      </trkpt>
      <trkpt lat="44.69282" lon="3.83514">
        <ele>999.88934326172</ele>
        <time>2020-10-16T08:50:37.548Z</time>
      </trkpt>
      <trkpt lat="44.69261" lon="3.8353">
        <ele>1002.2525024414</ele>
        <time>2020-10-16T08:50:38.503Z</time>
      </trkpt>
      <trkpt lat="44.69237" lon="3.83548">
        <ele>1004.3259277344</ele>
        <time>2020-10-16T08:50:39.463Z</time>
      </trkpt>
      <trkpt lat="44.69215" lon="3.8357">
        <ele>1007.1510009766</ele>
        <time>2020-10-16T08:50:40.429Z</time>
      </trkpt>
      <trkpt lat="44.69188" lon="3.83595">
        <ele>1009.8294067383</ele>
        <time>2020-10-16T08:50:41.401Z</time>
      </trkpt>
      <trkpt lat="44.69169" lon="3.83617">
        <ele>1011.8215332031</ele>
        <time>2020-10-16T08:50:42.378Z</time>
      </trkpt>
      <trkpt lat="44.69159" lon="3.83626">
        <ele>1012.0518188477</ele>
        <time>2020-10-16T08:50:43.357Z</time>
      </trkpt>
      <trkpt lat="44.69146" lon="3.83635">
        <ele>1012.4784545898</ele>
        <time>2020-10-16T08:50:44.339Z</time>
      </trkpt>
      <trkpt lat="44.69109" lon="3.83654">
        <ele>1014.2299804688</ele>
        <time>2020-10-16T08:50:45.329Z</time>
      </trkpt>
      <trkpt lat="44.69046" lon="3.83683">
        <ele>1018.8312988281</ele>
        <time>2020-10-16T08:50:46.332Z</time>
      </trkpt>
      <trkpt lat="44.69023" lon="3.83696">
        <ele>1019.3516235352</ele>
        <time>2020-10-16T08:50:47.340Z</time>
      </trkpt>
      <trkpt lat="44.69006" lon="3.83707">
        <ele>1018.4647827148</ele>
        <time>2020-10-16T08:50:48.352Z</time>
      </trkpt>
      <trkpt lat="44.68985" lon="3.83721">
        <ele>1017.4013671875</ele>
        <time>2020-10-16T08:50:49.369Z</time>
      </trkpt>
      <trkpt lat="44.68946" lon="3.83749">
        <ele>1024.3247070312</ele>
        <time>2020-10-16T08:50:50.395Z</time>
      </trkpt>
      <trkpt lat="44.68909" lon="3.83775">
        <ele>1030.9012451172</ele>
        <time>2020-10-16T08:50:51.429Z</time>
      </trkpt>
      <trkpt lat="44.68873" lon="3.83798">
        <ele>1035.9350585938</ele>
        <time>2020-10-16T08:50:52.471Z</time>
      </trkpt>
      <trkpt lat="44.68844" lon="3.83815">
        <ele>1038.4893798828</ele>
        <time>2020-10-16T08:50:53.519Z</time>
      </trkpt>
      <trkpt lat="44.68802" lon="3.83836">
        <ele>1041.1765136719</ele>
        <time>2020-10-16T08:50:54.576Z</time>
      </trkpt>
      <trkpt lat="44.68771" lon="3.8385">
        <ele>1044.2593994141</ele>
        <time>2020-10-16T08:50:55.639Z</time>
      </trkpt>
      <trkpt lat="44.6874" lon="3.83864">
        <ele>1048.0435791016</ele>
        <time>2020-10-16T08:50:56.709Z</time>
      </trkpt>
      <trkpt lat="44.68711" lon="3.83882">
        <ele>1050.3288574219</ele>
        <time>2020-10-16T08:50:57.785Z</time>
      </trkpt>
      <trkpt lat="44.68672" lon="3.83908">
        <ele>1054.5255126953</ele>
        <time>2020-10-16T08:50:58.870Z</time>
      </trkpt>
      <trkpt lat="44.68652" lon="3.83919">
        <ele>1057.3208007812</ele>
        <time>2020-10-16T08:50:59.959Z</time>
      </trkpt>
      <trkpt lat="44.68634" lon="3.8393">
        <ele>1060.0217285156</ele>
        <time>2020-10-16T08:51:01.052Z</time>
      </trkpt>
      <trkpt lat="44.68617" lon="3.83935">
        <ele>1062.3470458984</ele>
        <time>2020-10-16T08:51:02.149Z</time>
      </trkpt>
      <trkpt lat="44.68581" lon="3.83943">
        <ele>1065.6833496094</ele>
        <time>2020-10-16T08:51:03.253Z</time>
      </trkpt>
      <trkpt lat="44.68531" lon="3.83952">
        <ele>1069.8586425781</ele>
        <time>2020-10-16T08:51:04.367Z</time>
      </trkpt>
      <trkpt lat="44.68503" lon="3.83961">
        <ele>1069.7430419922</ele>
        <time>2020-10-16T08:51:05.487Z</time>
      </trkpt>
      <trkpt lat="44.68476" lon="3.8397">
        <ele>1070.2027587891</ele>
        <time>2020-10-16T08:51:06.612Z</time>
      </trkpt>
      <trkpt lat="44.68458" lon="3.83974">
        <ele>1072.0893554688</ele>
        <time>2020-10-16T08:51:07.741Z</time>
      </trkpt>
      <trkpt lat="44.6844" lon="3.83977">
        <ele>1072.5427246094</ele>
        <time>2020-10-16T08:51:08.873Z</time>
      </trkpt>
      <trkpt lat="44.68417" lon="3.8398">
        <ele>1072.5084228516</ele>
        <time>2020-10-16T08:51:10.010Z</time>
      </trkpt>
      <trkpt lat="44.68368" lon="3.83986">
        <ele>1073.3520507812</ele>
        <time>2020-10-16T08:51:11.157Z</time>
      </trkpt>
      <trkpt lat="44.68359" lon="3.83985">
        <ele>1072.5427246094</ele>
        <time>2020-10-16T08:51:12.306Z</time>
      </trkpt>
      <trkpt lat="44.68349" lon="3.83982">
        <ele>1071.4865722656</ele>
        <time>2020-10-16T08:51:13.457Z</time>
      </trkpt>
      <trkpt lat="44.68335" lon="3.83979">
        <ele>1070.1434326172</ele>
        <time>2020-10-16T08:51:14.611Z</time>
      </trkpt>
      <trkpt lat="44.68328" lon="3.83978">
        <ele>1069.42578125</ele>
        <time>2020-10-16T08:51:15.766Z</time>
      </trkpt>
      <trkpt lat="44.68321" lon="3.8398">
        <ele>1069.3610839844</ele>
        <time>2020-10-16T08:51:16.923Z</time>
      </trkpt>
      <trkpt lat="44.68305" lon="3.83985">
        <ele>1069.6661376953</ele>
        <time>2020-10-16T08:51:18.083Z</time>
      </trkpt>
      <trkpt lat="44.68275" lon="3.83996">
        <ele>1070.5855712891</ele>
        <time>2020-10-16T08:51:19.249Z</time>
      </trkpt>
      <trkpt lat="44.68244" lon="3.84005">
        <ele>1073.6811523438</ele>
        <time>2020-10-16T08:51:20.421Z</time>
      </trkpt>
      <trkpt lat="44.68225" lon="3.8401">
        <ele>1076.0133056641</ele>
        <time>2020-10-16T08:51:21.597Z</time>
      </trkpt>
      <trkpt lat="44.68207" lon="3.84015">
        <ele>1078.3439941406</ele>
        <time>2020-10-16T08:51:22.777Z</time>
      </trkpt>
      <trkpt lat="44.68191" lon="3.8402">
        <ele>1081.2810058594</ele>
        <time>2020-10-16T08:51:23.960Z</time>
      </trkpt>
      <trkpt lat="44.68185" lon="3.84022">
        <ele>1082.3343505859</ele>
        <time>2020-10-16T08:51:25.144Z</time>
      </trkpt>
      <trkpt lat="44.68171" lon="3.84029">
        <ele>1084.2097167969</ele>
        <time>2020-10-16T08:51:26.331Z</time>
      </trkpt>
      <trkpt lat="44.6815" lon="3.84043">
        <ele>1086.9647216797</ele>
        <time>2020-10-16T08:51:27.523Z</time>
      </trkpt>
      <trkpt lat="44.68138" lon="3.84053">
        <ele>1088.5844726562</ele>
        <time>2020-10-16T08:51:28.718Z</time>
      </trkpt>
      <trkpt lat="44.68126" lon="3.84067">
        <ele>1090.2335205078</ele>
        <time>2020-10-16T08:51:29.916Z</time>
      </trkpt>
      <trkpt lat="44.68114" lon="3.84084">
        <ele>1091.8098144531</ele>
        <time>2020-10-16T08:51:31.117Z</time>
      </trkpt>
      <trkpt lat="44.68092" lon="3.84113">
        <ele>1096.2525634766</ele>
        <time>2020-10-16T08:51:32.324Z</time>
      </trkpt>
      <trkpt lat="44.68079" lon="3.84127">
        <ele>1098.6442871094</ele>
        <time>2020-10-16T08:51:33.535Z</time>
      </trkpt>
      <trkpt lat="44.68063" lon="3.84142">
        <ele>1101.5639648438</ele>
        <time>2020-10-16T08:51:34.749Z</time>
      </trkpt>
      <trkpt lat="44.68032" lon="3.84169">
        <ele>1107.1154785156</ele>
        <time>2020-10-16T08:51:35.971Z</time>
      </trkpt>
      <trkpt lat="44.67996" lon="3.84202">
        <ele>1108.3348388672</ele>
        <time>2020-10-16T08:51:37.201Z</time>
      </trkpt>
      <trkpt lat="44.67963" lon="3.84233">
        <ele>1109.2630615234</ele>
        <time>2020-10-16T08:51:38.439Z</time>
      </trkpt>
      <trkpt lat="44.6793" lon="3.8426">
        <ele>1106.7076416016</ele>
        <time>2020-10-16T08:51:39.685Z</time>
      </trkpt>
      <trkpt lat="44.67926" lon="3.84265">
        <ele>1106.9846191406</ele>
        <time>2020-10-16T08:51:40.932Z</time>
      </trkpt>
      <trkpt lat="44.67924" lon="3.84269">
        <ele>1107.2446289062</ele>
        <time>2020-10-16T08:51:42.180Z</time>
      </trkpt>
      <trkpt lat="44.67922" lon="3.84275">
        <ele>1107.5875244141</ele>
        <time>2020-10-16T08:51:43.429Z</time>
      </trkpt>
      <trkpt lat="44.6793" lon="3.84273">
        <ele>1107.8951416016</ele>
        <time>2020-10-16T08:51:44.679Z</time>
      </trkpt>
      <trkpt lat="44.67938" lon="3.84274">
        <ele>1108.2868652344</ele>
        <time>2020-10-16T08:51:45.931Z</time>
      </trkpt>
      <trkpt lat="44.67949" lon="3.84278">
        <ele>1108.9273681641</ele>
        <time>2020-10-16T08:51:47.185Z</time>
      </trkpt>
      <trkpt lat="44.67988" lon="3.84299">
        <ele>1107.7575683594</ele>
        <time>2020-10-16T08:51:48.447Z</time>
      </trkpt>
      <trkpt lat="44.68042" lon="3.84328">
        <ele>1104.7974853516</ele>
        <time>2020-10-16T08:51:49.721Z</time>
      </trkpt>
      <trkpt lat="44.68067" lon="3.84343">
        <ele>1101.5750732422</ele>
        <time>2020-10-16T08:51:51.001Z</time>
      </trkpt>
      <trkpt lat="44.68089" lon="3.84357">
        <ele>1098.9317626953</ele>
        <time>2020-10-16T08:51:52.285Z</time>
      </trkpt>
      <trkpt lat="44.68124" lon="3.84384">
        <ele>1096.1229248047</ele>
        <time>2020-10-16T08:51:53.577Z</time>
      </trkpt>
      <trkpt lat="44.68182" lon="3.84425">
        <ele>1093.1313476562</ele>
        <time>2020-10-16T08:51:54.882Z</time>
      </trkpt>
      <trkpt lat="44.68199" lon="3.84433">
        <ele>1091.908203125</ele>
        <time>2020-10-16T08:51:56.191Z</time>
      </trkpt>
      <trkpt lat="44.68217" lon="3.84439">
        <ele>1091.5228271484</ele>
        <time>2020-10-16T08:51:57.504Z</time>
      </trkpt>
      <trkpt lat="44.68233" lon="3.84443">
        <ele>1091.1684570312</ele>
        <time>2020-10-16T08:51:58.820Z</time>
      </trkpt>
      <trkpt lat="44.68233" lon="3.84456">
        <ele>1091.9370117188</ele>
        <time>2020-10-16T08:52:00.138Z</time>
      </trkpt>
      <trkpt lat="44.68234" lon="3.8448">
        <ele>1093.5728759766</ele>
        <time>2020-10-16T08:52:01.459Z</time>
      </trkpt>
      <trkpt lat="44.6824" lon="3.84561">
        <ele>1098.2260742188</ele>
        <time>2020-10-16T08:52:02.792Z</time>
      </trkpt>
      <trkpt lat="44.68241" lon="3.84596">
        <ele>1100.2243652344</ele>
        <time>2020-10-16T08:52:04.130Z</time>
      </trkpt>
      <trkpt lat="44.68241" lon="3.84608">
        <ele>1100.8011474609</ele>
        <time>2020-10-16T08:52:05.469Z</time>
      </trkpt>
      <trkpt lat="44.68242" lon="3.84637">
        <ele>1100.7633056641</ele>
        <time>2020-10-16T08:52:06.813Z</time>
      </trkpt>
      <trkpt lat="44.68242" lon="3.84667">
        <ele>1101.3216552734</ele>
        <time>2020-10-16T08:52:08.161Z</time>
      </trkpt>
      <trkpt lat="44.68236" lon="3.84698">
        <ele>1101.9163818359</ele>
        <time>2020-10-16T08:52:09.513Z</time>
      </trkpt>
      <trkpt lat="44.68224" lon="3.84743">
        <ele>1101.6953125</ele>
        <time>2020-10-16T08:52:10.872Z</time>
      </trkpt>
      <trkpt lat="44.68215" lon="3.84766">
        <ele>1102.4915771484</ele>
        <time>2020-10-16T08:52:12.235Z</time>
      </trkpt>
      <trkpt lat="44.68189" lon="3.84802">
        <ele>1102.7589111328</ele>
        <time>2020-10-16T08:52:13.605Z</time>
      </trkpt>
      <trkpt lat="44.68182" lon="3.84835">
        <ele>1100.8010253906</ele>
        <time>2020-10-16T08:52:14.980Z</time>
      </trkpt>
      <trkpt lat="44.68177" lon="3.84865">
        <ele>1099.2570800781</ele>
        <time>2020-10-16T08:52:16.360Z</time>
      </trkpt>
      <trkpt lat="44.68171" lon="3.84891">
        <ele>1097.7757568359</ele>
        <time>2020-10-16T08:52:17.744Z</time>
      </trkpt>
      <trkpt lat="44.68191" lon="3.84922">
        <ele>1094.0871582031</ele>
        <time>2020-10-16T08:52:19.134Z</time>
      </trkpt>
      <trkpt lat="44.68212" lon="3.84958">
        <ele>1091.9724121094</ele>
        <time>2020-10-16T08:52:20.530Z</time>
      </trkpt>
      <trkpt lat="44.68248" lon="3.8499">
        <ele>1090.0386962891</ele>
        <time>2020-10-16T08:52:21.935Z</time>
      </trkpt>
      <trkpt lat="44.68374" lon="3.85096">
        <ele>1085.3739013672</ele>
        <time>2020-10-16T08:52:23.369Z</time>
      </trkpt>
      <trkpt lat="44.68476" lon="3.85159">
        <ele>1082.0676269531</ele>
        <time>2020-10-16T08:52:24.825Z</time>
      </trkpt>
      <trkpt lat="44.68507" lon="3.85179">
        <ele>1080.5650634766</ele>
        <time>2020-10-16T08:52:26.288Z</time>
      </trkpt>
      <trkpt lat="44.68544" lon="3.85206">
        <ele>1079.2379150391</ele>
        <time>2020-10-16T08:52:27.760Z</time>
      </trkpt>
      <trkpt lat="44.6858" lon="3.85261">
        <ele>1081.5670166016</ele>
        <time>2020-10-16T08:52:29.242Z</time>
      </trkpt>
      <trkpt lat="44.68594" lon="3.85275">
        <ele>1081.3497314453</ele>
        <time>2020-10-16T08:52:30.728Z</time>
      </trkpt>
      <trkpt lat="44.68627" lon="3.85335">
        <ele>1082.8883056641</ele>
        <time>2020-10-16T08:52:32.224Z</time>
      </trkpt>
      <trkpt lat="44.68643" lon="3.85401">
        <ele>1083.912109375</ele>
        <time>2020-10-16T08:52:33.730Z</time>
      </trkpt>
      <trkpt lat="44.6865" lon="3.85464">
        <ele>1084.4583740234</ele>
        <time>2020-10-16T08:52:35.246Z</time>
      </trkpt>
      <trkpt lat="44.68644" lon="3.85507">
        <ele>1086.7578125</ele>
        <time>2020-10-16T08:52:36.768Z</time>
      </trkpt>
      <trkpt lat="44.68641" lon="3.85562">
        <ele>1087.2470703125</ele>
        <time>2020-10-16T08:52:38.298Z</time>
      </trkpt>
      <trkpt lat="44.6864" lon="3.85607">
        <ele>1085.8311767578</ele>
        <time>2020-10-16T08:52:39.834Z</time>
      </trkpt>
      <trkpt lat="44.68642" lon="3.8565">
        <ele>1084.775390625</ele>
        <time>2020-10-16T08:52:41.376Z</time>
      </trkpt>
      <trkpt lat="44.68654" lon="3.85716">
        <ele>1083.7548828125</ele>
        <time>2020-10-16T08:52:42.928Z</time>
      </trkpt>
      <trkpt lat="44.68659" lon="3.85737">
        <ele>1083.8934326172</ele>
        <time>2020-10-16T08:52:44.483Z</time>
      </trkpt>
      <trkpt lat="44.68663" lon="3.85751">
        <ele>1083.818359375</ele>
        <time>2020-10-16T08:52:46.040Z</time>
      </trkpt>
      <trkpt lat="44.68664" lon="3.85776">
        <ele>1084.3837890625</ele>
        <time>2020-10-16T08:52:47.601Z</time>
      </trkpt>
      <trkpt lat="44.68665" lon="3.85809">
        <ele>1085.8322753906</ele>
        <time>2020-10-16T08:52:49.167Z</time>
      </trkpt>
      <trkpt lat="44.68655" lon="3.85835">
        <ele>1086.8918457031</ele>
        <time>2020-10-16T08:52:50.737Z</time>
      </trkpt>
      <trkpt lat="44.68602" lon="3.8592">
        <ele>1088.6870117188</ele>
        <time>2020-10-16T08:52:52.323Z</time>
      </trkpt>
      <trkpt lat="44.68547" lon="3.86005">
        <ele>1089.4045410156</ele>
        <time>2020-10-16T08:52:53.925Z</time>
      </trkpt>
      <trkpt lat="44.68518" lon="3.86052">
        <ele>1088.3021240234</ele>
        <time>2020-10-16T08:52:55.536Z</time>
      </trkpt>
      <trkpt lat="44.68503" lon="3.86085">
        <ele>1086.5721435547</ele>
        <time>2020-10-16T08:52:57.153Z</time>
      </trkpt>
      <trkpt lat="44.68499" lon="3.86095">
        <ele>1085.5969238281</ele>
        <time>2020-10-16T08:52:58.771Z</time>
      </trkpt>
      <trkpt lat="44.68498" lon="3.86098">
        <ele>1085.3214111328</ele>
        <time>2020-10-16T08:53:00.390Z</time>
      </trkpt>
      <trkpt lat="44.68504" lon="3.86097">
        <ele>1085.0222167969</ele>
        <time>2020-10-16T08:53:02.010Z</time>
      </trkpt>
      <trkpt lat="44.68518" lon="3.86097">
        <ele>1084.2255859375</ele>
        <time>2020-10-16T08:53:03.633Z</time>
      </trkpt>
      <trkpt lat="44.68546" lon="3.86088">
        <ele>1083.0240478516</ele>
        <time>2020-10-16T08:53:05.261Z</time>
      </trkpt>
      <trkpt lat="44.68588" lon="3.86063">
        <ele>1082.30859375</ele>
        <time>2020-10-16T08:53:06.899Z</time>
      </trkpt>
      <trkpt lat="44.6865" lon="3.86034">
        <ele>1076.9685058594</ele>
        <time>2020-10-16T08:53:08.550Z</time>
      </trkpt>
      <trkpt lat="44.68668" lon="3.86039">
        <ele>1075.7496337891</ele>
        <time>2020-10-16T08:53:10.204Z</time>
      </trkpt>
      <trkpt lat="44.68685" lon="3.8604">
        <ele>1074.4022216797</ele>
        <time>2020-10-16T08:53:11.862Z</time>
      </trkpt>
      <trkpt lat="44.68713" lon="3.86032">
        <ele>1072.4844970703</ele>
        <time>2020-10-16T08:53:13.526Z</time>
      </trkpt>
      <trkpt lat="44.68729" lon="3.86025">
        <ele>1070.984375</ele>
        <time>2020-10-16T08:53:15.193Z</time>
      </trkpt>
      <trkpt lat="44.68751" lon="3.86014">
        <ele>1070.4295654297</ele>
        <time>2020-10-16T08:53:16.865Z</time>
      </trkpt>
      <trkpt lat="44.68772" lon="3.85991">
        <ele>1070.5831298828</ele>
        <time>2020-10-16T08:53:18.542Z</time>
      </trkpt>
      <trkpt lat="44.6878" lon="3.85989">
        <ele>1069.8953857422</ele>
        <time>2020-10-16T08:53:20.220Z</time>
      </trkpt>
      <trkpt lat="44.68843" lon="3.8597">
        <ele>1066.9870605469</ele>
        <time>2020-10-16T08:53:21.911Z</time>
      </trkpt>
      <trkpt lat="44.68896" lon="3.85969">
        <ele>1062.5925292969</ele>
        <time>2020-10-16T08:53:23.613Z</time>
      </trkpt>
      <trkpt lat="44.68912" lon="3.85966">
        <ele>1059.9248046875</ele>
        <time>2020-10-16T08:53:25.318Z</time>
      </trkpt>
      <trkpt lat="44.6901" lon="3.85915">
        <ele>1044.8776855469</ele>
        <time>2020-10-16T08:53:27.044Z</time>
      </trkpt>
      <trkpt lat="44.69054" lon="3.85886">
        <ele>1034.4096679688</ele>
        <time>2020-10-16T08:53:28.780Z</time>
      </trkpt>
      <trkpt lat="44.69083" lon="3.85877">
        <ele>1028.7368164062</ele>
        <time>2020-10-16T08:53:30.522Z</time>
      </trkpt>
      <trkpt lat="44.69163" lon="3.85929">
        <ele>1017.9281616211</ele>
        <time>2020-10-16T08:53:32.281Z</time>
      </trkpt>
      <trkpt lat="44.69199" lon="3.85936">
        <ele>1009.8350830078</ele>
        <time>2020-10-16T08:53:34.048Z</time>
      </trkpt>
      <trkpt lat="44.69211" lon="3.85945">
        <ele>1007.7001953125</ele>
        <time>2020-10-16T08:53:35.817Z</time>
      </trkpt>
      <trkpt lat="44.69226" lon="3.85966">
        <ele>1005.908996582</ele>
        <time>2020-10-16T08:53:37.591Z</time>
      </trkpt>
      <trkpt lat="44.69229" lon="3.85964">
        <ele>1004.6952514648</ele>
        <time>2020-10-16T08:53:39.365Z</time>
      </trkpt>
      <trkpt lat="44.69229" lon="3.85945">
        <ele>1004.0227050781</ele>
        <time>2020-10-16T08:53:41.142Z</time>
      </trkpt>
      <trkpt lat="44.6923" lon="3.85922">
        <ele>1001.6614379883</ele>
        <time>2020-10-16T08:53:42.922Z</time>
      </trkpt>
      <trkpt lat="44.69235" lon="3.85904">
        <ele>998.63177490234</ele>
        <time>2020-10-16T08:53:44.705Z</time>
      </trkpt>
      <trkpt lat="44.69245" lon="3.85893">
        <ele>996.11999511719</ele>
        <time>2020-10-16T08:53:46.491Z</time>
      </trkpt>
      <trkpt lat="44.69248" lon="3.85883">
        <ele>996.13690185547</ele>
        <time>2020-10-16T08:53:48.278Z</time>
      </trkpt>
      <trkpt lat="44.69259" lon="3.85853">
        <ele>996.31079101562</ele>
        <time>2020-10-16T08:53:50.070Z</time>
      </trkpt>
      <trkpt lat="44.69262" lon="3.85846">
        <ele>996.77941894531</ele>
        <time>2020-10-16T08:53:51.863Z</time>
      </trkpt>
      <trkpt lat="44.69265" lon="3.85841">
        <ele>997.00695800781</ele>
        <time>2020-10-16T08:53:53.657Z</time>
      </trkpt>
      <trkpt lat="44.6927" lon="3.85838">
        <ele>996.85522460938</ele>
        <time>2020-10-16T08:53:55.452Z</time>
      </trkpt>
      <trkpt lat="44.69274" lon="3.85836">
        <ele>996.38165283203</ele>
        <time>2020-10-16T08:53:57.248Z</time>
      </trkpt>
      <trkpt lat="44.69279" lon="3.85836">
        <ele>995.74963378906</ele>
        <time>2020-10-16T08:53:59.045Z</time>
      </trkpt>
      <trkpt lat="44.69283" lon="3.85838">
        <ele>995.1494140625</ele>
        <time>2020-10-16T08:54:00.843Z</time>
      </trkpt>
      <trkpt lat="44.69286" lon="3.85843">
        <ele>994.50250244141</ele>
        <time>2020-10-16T08:54:02.642Z</time>
      </trkpt>
      <trkpt lat="44.69289" lon="3.85851">
        <ele>994.54888916016</ele>
        <time>2020-10-16T08:54:04.442Z</time>
      </trkpt>
      <trkpt lat="44.69295" lon="3.85873">
        <ele>994.46203613281</ele>
        <time>2020-10-16T08:54:06.246Z</time>
      </trkpt>
      <trkpt lat="44.69301" lon="3.85899">
        <ele>994.51086425781</ele>
        <time>2020-10-16T08:54:08.053Z</time>
      </trkpt>
      <trkpt lat="44.69307" lon="3.85916">
        <ele>994.73095703125</ele>
        <time>2020-10-16T08:54:09.863Z</time>
      </trkpt>
      <trkpt lat="44.69312" lon="3.85923">
        <ele>995.11151123047</ele>
        <time>2020-10-16T08:54:11.674Z</time>
      </trkpt>
      <trkpt lat="44.6932" lon="3.85928">
        <ele>995.86041259766</ele>
        <time>2020-10-16T08:54:13.487Z</time>
      </trkpt>
      <trkpt lat="44.6933" lon="3.8593">
        <ele>996.90679931641</ele>
        <time>2020-10-16T08:54:15.302Z</time>
      </trkpt>
      <trkpt lat="44.6934" lon="3.85928">
        <ele>997.99633789062</ele>
        <time>2020-10-16T08:54:17.119Z</time>
      </trkpt>
      <trkpt lat="44.69349" lon="3.85924">
        <ele>999.05798339844</ele>
        <time>2020-10-16T08:54:18.938Z</time>
      </trkpt>
      <trkpt lat="44.69368" lon="3.85915">
        <ele>1001.8804321289</ele>
        <time>2020-10-16T08:54:20.761Z</time>
      </trkpt>
      <trkpt lat="44.69384" lon="3.85914">
        <ele>1003.4233398438</ele>
        <time>2020-10-16T08:54:22.588Z</time>
      </trkpt>
      <trkpt lat="44.69394" lon="3.85914">
        <ele>1004.2672119141</ele>
        <time>2020-10-16T08:54:24.417Z</time>
      </trkpt>
      <trkpt lat="44.69405" lon="3.85915">
        <ele>1005.1463012695</ele>
        <time>2020-10-16T08:54:26.248Z</time>
      </trkpt>
      <trkpt lat="44.69414" lon="3.85918">
        <ele>1005.7547607422</ele>
        <time>2020-10-16T08:54:28.081Z</time>
      </trkpt>
      <trkpt lat="44.69431" lon="3.85928">
        <ele>1006.6405029297</ele>
        <time>2020-10-16T08:54:29.917Z</time>
      </trkpt>
      <trkpt lat="44.69457" lon="3.8594">
        <ele>1008.2498168945</ele>
        <time>2020-10-16T08:54:31.759Z</time>
      </trkpt>
      <trkpt lat="44.69467" lon="3.85943">
        <ele>1008.922668457</ele>
        <time>2020-10-16T08:54:33.603Z</time>
      </trkpt>
      <trkpt lat="44.69486" lon="3.85945">
        <ele>1010.2265014648</ele>
        <time>2020-10-16T08:54:35.451Z</time>
      </trkpt>
      <trkpt lat="44.69532" lon="3.85954">
        <ele>1013.2872314453</ele>
        <time>2020-10-16T08:54:37.308Z</time>
      </trkpt>
      <trkpt lat="44.69587" lon="3.85965">
        <ele>1013.6972045898</ele>
        <time>2020-10-16T08:54:39.176Z</time>
      </trkpt>
      <trkpt lat="44.69624" lon="3.8597">
        <ele>1013.4340820312</ele>
        <time>2020-10-16T08:54:41.051Z</time>
      </trkpt>
      <trkpt lat="44.69645" lon="3.85972">
        <ele>1012.3887329102</ele>
        <time>2020-10-16T08:54:42.931Z</time>
      </trkpt>
      <trkpt lat="44.69672" lon="3.85967">
        <ele>1010.8874511719</ele>
        <time>2020-10-16T08:54:44.816Z</time>
      </trkpt>
      <trkpt lat="44.69691" lon="3.85958">
        <ele>1009.7327270508</ele>
        <time>2020-10-16T08:54:46.705Z</time>
      </trkpt>
      <trkpt lat="44.69718" lon="3.85941">
        <ele>1008.7116088867</ele>
        <time>2020-10-16T08:54:48.600Z</time>
      </trkpt>
      <trkpt lat="44.69765" lon="3.85907">
        <ele>1007.7635498047</ele>
        <time>2020-10-16T08:54:50.506Z</time>
      </trkpt>
      <trkpt lat="44.69809" lon="3.85881">
        <ele>1006.4682006836</ele>
        <time>2020-10-16T08:54:52.421Z</time>
      </trkpt>
      <trkpt lat="44.6984" lon="3.85863">
        <ele>1007.3818359375</ele>
        <time>2020-10-16T08:54:54.343Z</time>
      </trkpt>
      <trkpt lat="44.69847" lon="3.85859">
        <ele>1007.6147460938</ele>
        <time>2020-10-16T08:54:56.266Z</time>
      </trkpt>
      <trkpt lat="44.69896" lon="3.85833">
        <ele>1007.6317138672</ele>
        <time>2020-10-16T08:54:58.200Z</time>
      </trkpt>
      <trkpt lat="44.69922" lon="3.85818">
        <ele>1006.9768066406</ele>
        <time>2020-10-16T08:55:00.139Z</time>
      </trkpt>
      <trkpt lat="44.69959" lon="3.85805">
        <ele>1005.6167602539</ele>
        <time>2020-10-16T08:55:02.086Z</time>
      </trkpt>
      <trkpt lat="44.69989" lon="3.85797">
        <ele>1005.1369628906</ele>
        <time>2020-10-16T08:55:04.039Z</time>
      </trkpt>
      <trkpt lat="44.70031" lon="3.85788">
        <ele>1002.8612060547</ele>
        <time>2020-10-16T08:55:06.001Z</time>
      </trkpt>
      <trkpt lat="44.70063" lon="3.85782">
        <ele>1001.4837646484</ele>
        <time>2020-10-16T08:55:07.969Z</time>
      </trkpt>
      <trkpt lat="44.70096" lon="3.85776">
        <ele>1000.606628418</ele>
        <time>2020-10-16T08:55:09.944Z</time>
      </trkpt>
      <trkpt lat="44.70154" lon="3.85754">
        <ele>997.50854492188</ele>
        <time>2020-10-16T08:55:11.931Z</time>
      </trkpt>
      <trkpt lat="44.70183" lon="3.85744">
        <ele>995.61322021484</ele>
        <time>2020-10-16T08:55:13.924Z</time>
      </trkpt>
      <trkpt lat="44.70244" lon="3.85719">
        <ele>991.35321044922</ele>
        <time>2020-10-16T08:55:15.929Z</time>
      </trkpt>
      <trkpt lat="44.70262" lon="3.85712">
        <ele>989.85632324219</ele>
        <time>2020-10-16T08:55:17.938Z</time>
      </trkpt>
      <trkpt lat="44.70331" lon="3.85689">
        <ele>985.94091796875</ele>
        <time>2020-10-16T08:55:19.961Z</time>
      </trkpt>
      <trkpt lat="44.70356" lon="3.85681">
        <ele>985.24499511719</ele>
        <time>2020-10-16T08:55:21.990Z</time>
      </trkpt>
      <trkpt lat="44.7038" lon="3.85679">
        <ele>984.13763427734</ele>
        <time>2020-10-16T08:55:24.023Z</time>
      </trkpt>
      <trkpt lat="44.70412" lon="3.85675">
        <ele>981.80084228516</ele>
        <time>2020-10-16T08:55:26.063Z</time>
      </trkpt>
      <trkpt lat="44.70428" lon="3.85675">
        <ele>980.66754150391</ele>
        <time>2020-10-16T08:55:28.106Z</time>
      </trkpt>
      <trkpt lat="44.70454" lon="3.85677">
        <ele>979.22039794922</ele>
        <time>2020-10-16T08:55:30.154Z</time>
      </trkpt>
      <trkpt lat="44.70472" lon="3.85674">
        <ele>978.05694580078</ele>
        <time>2020-10-16T08:55:32.206Z</time>
      </trkpt>
      <trkpt lat="44.70497" lon="3.8567">
        <ele>976.35852050781</ele>
        <time>2020-10-16T08:55:34.263Z</time>
      </trkpt>
      <trkpt lat="44.7056" lon="3.85653">
        <ele>975.640625</ele>
        <time>2020-10-16T08:55:36.333Z</time>
      </trkpt>
      <trkpt lat="44.70571" lon="3.85649">
        <ele>975.93060302734</ele>
        <time>2020-10-16T08:55:38.405Z</time>
      </trkpt>
      <trkpt lat="44.70593" lon="3.85644">
        <ele>975.82690429688</ele>
        <time>2020-10-16T08:55:40.481Z</time>
      </trkpt>
      <trkpt lat="44.70606" lon="3.85645">
        <ele>975.4619140625</ele>
        <time>2020-10-16T08:55:42.560Z</time>
      </trkpt>
      <trkpt lat="44.70619" lon="3.85653">
        <ele>974.78295898438</ele>
        <time>2020-10-16T08:55:44.642Z</time>
      </trkpt>
      <trkpt lat="44.70638" lon="3.85668">
        <ele>974.89556884766</ele>
        <time>2020-10-16T08:55:46.728Z</time>
      </trkpt>
      <trkpt lat="44.70657" lon="3.85685">
        <ele>974.94982910156</ele>
        <time>2020-10-16T08:55:48.819Z</time>
      </trkpt>
      <trkpt lat="44.70664" lon="3.85684">
        <ele>975.33367919922</ele>
        <time>2020-10-16T08:55:50.911Z</time>
      </trkpt>
      <trkpt lat="44.70671" lon="3.85684">
        <ele>975.70336914062</ele>
        <time>2020-10-16T08:55:53.004Z</time>
      </trkpt>
      <trkpt lat="44.70681" lon="3.85684">
        <ele>976.14038085938</ele>
        <time>2020-10-16T08:55:55.099Z</time>
      </trkpt>
      <trkpt lat="44.70701" lon="3.85691">
        <ele>976.86065673828</ele>
        <time>2020-10-16T08:55:57.199Z</time>
      </trkpt>
      <trkpt lat="44.70718" lon="3.85694">
        <ele>977.47534179688</ele>
        <time>2020-10-16T08:55:59.302Z</time>
      </trkpt>
      <trkpt lat="44.70742" lon="3.85694">
        <ele>978.33538818359</ele>
        <time>2020-10-16T08:56:01.410Z</time>
      </trkpt>
      <trkpt lat="44.70763" lon="3.85692">
        <ele>979.11938476562</ele>
        <time>2020-10-16T08:56:03.522Z</time>
      </trkpt>
      <trkpt lat="44.70787" lon="3.85689">
        <ele>980.00714111328</ele>
        <time>2020-10-16T08:56:05.639Z</time>
      </trkpt>
      <trkpt lat="44.70812" lon="3.85682">
        <ele>978.95501708984</ele>
        <time>2020-10-16T08:56:07.761Z</time>
      </trkpt>
      <trkpt lat="44.70873" lon="3.85669">
        <ele>976.56616210938</ele>
        <time>2020-10-16T08:56:09.895Z</time>
      </trkpt>
      <trkpt lat="44.70929" lon="3.85655">
        <ele>973.61602783203</ele>
        <time>2020-10-16T08:56:12.041Z</time>
      </trkpt>
      <trkpt lat="44.7098" lon="3.85643">
        <ele>971.47814941406</ele>
        <time>2020-10-16T08:56:14.197Z</time>
      </trkpt>
      <trkpt lat="44.71002" lon="3.85639">
        <ele>971.41058349609</ele>
        <time>2020-10-16T08:56:16.357Z</time>
      </trkpt>
      <trkpt lat="44.71018" lon="3.85638">
        <ele>971.44677734375</ele>
        <time>2020-10-16T08:56:18.521Z</time>
      </trkpt>
      <trkpt lat="44.71048" lon="3.85638">
        <ele>971.59161376953</ele>
        <time>2020-10-16T08:56:20.691Z</time>
      </trkpt>
      <trkpt lat="44.71107" lon="3.85644">
        <ele>971.63458251953</ele>
        <time>2020-10-16T08:56:22.873Z</time>
      </trkpt>
      <trkpt lat="44.7115" lon="3.85649">
        <ele>971.80352783203</ele>
        <time>2020-10-16T08:56:25.063Z</time>
      </trkpt>
      <trkpt lat="44.7116" lon="3.85652">
        <ele>971.83197021484</ele>
        <time>2020-10-16T08:56:27.255Z</time>
      </trkpt>
      <trkpt lat="44.71187" lon="3.8566">
        <ele>971.71441650391</ele>
        <time>2020-10-16T08:56:29.453Z</time>
      </trkpt>
      <trkpt lat="44.71203" lon="3.85665">
        <ele>971.57873535156</ele>
        <time>2020-10-16T08:56:31.654Z</time>
      </trkpt>
      <trkpt lat="44.71212" lon="3.85667">
        <ele>971.22924804688</ele>
        <time>2020-10-16T08:56:33.857Z</time>
      </trkpt>
      <trkpt lat="44.71223" lon="3.85668">
        <ele>970.82525634766</ele>
        <time>2020-10-16T08:56:36.062Z</time>
      </trkpt>
      <trkpt lat="44.7125" lon="3.85665">
        <ele>969.92016601562</ele>
        <time>2020-10-16T08:56:38.272Z</time>
      </trkpt>
      <trkpt lat="44.71278" lon="3.85663">
        <ele>968.93231201172</ele>
        <time>2020-10-16T08:56:40.488Z</time>
      </trkpt>
      <trkpt lat="44.71333" lon="3.85661">
        <ele>965.91009521484</ele>
        <time>2020-10-16T08:56:42.715Z</time>
      </trkpt>
      <trkpt lat="44.7138" lon="3.85657">
        <ele>962.65649414062</ele>
        <time>2020-10-16T08:56:44.951Z</time>
      </trkpt>
      <trkpt lat="44.71389" lon="3.85657">
        <ele>962.32580566406</ele>
        <time>2020-10-16T08:56:47.189Z</time>
      </trkpt>
      <trkpt lat="44.714" lon="3.85656">
        <ele>961.9345703125</ele>
        <time>2020-10-16T08:56:49.429Z</time>
      </trkpt>
      <trkpt lat="44.71412" lon="3.85653">
        <ele>961.51306152344</ele>
        <time>2020-10-16T08:56:51.672Z</time>
      </trkpt>
      <trkpt lat="44.71435" lon="3.85647">
        <ele>961.52746582031</ele>
        <time>2020-10-16T08:56:53.920Z</time>
      </trkpt>
      <trkpt lat="44.71461" lon="3.8564">
        <ele>961.849609375</ele>
        <time>2020-10-16T08:56:56.173Z</time>
      </trkpt>
      <trkpt lat="44.71478" lon="3.85638">
        <ele>962.15447998047</ele>
        <time>2020-10-16T08:56:58.429Z</time>
      </trkpt>
      <trkpt lat="44.715" lon="3.85635">
        <ele>962.48937988281</ele>
        <time>2020-10-16T08:57:00.690Z</time>
      </trkpt>
      <trkpt lat="44.71536" lon="3.8563">
        <ele>963.1298828125</ele>
        <time>2020-10-16T08:57:02.958Z</time>
      </trkpt>
      <trkpt lat="44.71564" lon="3.85624">
        <ele>963.67321777344</ele>
        <time>2020-10-16T08:57:05.232Z</time>
      </trkpt>
      <trkpt lat="44.71595" lon="3.85617">
        <ele>963.29864501953</ele>
        <time>2020-10-16T08:57:07.512Z</time>
      </trkpt>
      <trkpt lat="44.71634" lon="3.85606">
        <ele>962.52124023438</ele>
        <time>2020-10-16T08:57:09.800Z</time>
      </trkpt>
      <trkpt lat="44.71639" lon="3.85603">
        <ele>962.37768554688</ele>
        <time>2020-10-16T08:57:12.089Z</time>
      </trkpt>
      <trkpt lat="44.71639" lon="3.85603">
        <ele>962.38470458984</ele>
        <time>2020-10-16T08:57:14.378Z</time>
      </trkpt>
      <trkpt lat="44.71647" lon="3.85602">
        <ele>962.15173339844</ele>
        <time>2020-10-16T08:57:16.669Z</time>
      </trkpt>
      <trkpt lat="44.71654" lon="3.856">
        <ele>961.92047119141</ele>
        <time>2020-10-16T08:57:18.961Z</time>
      </trkpt>
      <trkpt lat="44.71709" lon="3.85601">
        <ele>959.48559570312</ele>
        <time>2020-10-16T08:57:21.264Z</time>
      </trkpt>
      <trkpt lat="44.71874" lon="3.85615">
        <ele>950.91253662109</ele>
        <time>2020-10-16T08:57:23.600Z</time>
      </trkpt>
      <trkpt lat="44.7193" lon="3.85598">
        <ele>947.82879638672</ele>
        <time>2020-10-16T08:57:25.948Z</time>
      </trkpt>
      <trkpt lat="44.7193" lon="3.85598">
        <ele>947.82836914062</ele>
        <time>2020-10-16T08:57:28.296Z</time>
      </trkpt>
      <trkpt lat="44.71999" lon="3.8558">
        <ele>943.06793212891</ele>
        <time>2020-10-16T08:57:30.658Z</time>
      </trkpt>
      <trkpt lat="44.72075" lon="3.85587">
        <ele>941.54223632812</ele>
        <time>2020-10-16T08:57:33.035Z</time>
      </trkpt>
      <trkpt lat="44.72144" lon="3.8556">
        <ele>938.12139892578</ele>
        <time>2020-10-16T08:57:35.426Z</time>
      </trkpt>
      <trkpt lat="44.7219" lon="3.85553">
        <ele>935.86047363281</ele>
        <time>2020-10-16T08:57:37.826Z</time>
      </trkpt>
      <trkpt lat="44.72202" lon="3.8555">
        <ele>935.41021728516</ele>
        <time>2020-10-16T08:57:40.229Z</time>
      </trkpt>
      <trkpt lat="44.72202" lon="3.8555">
        <ele>935.40991210938</ele>
        <time>2020-10-16T08:57:42.632Z</time>
      </trkpt>
      <trkpt lat="44.72223" lon="3.8555">
        <ele>933.24670410156</ele>
        <time>2020-10-16T08:57:45.039Z</time>
      </trkpt>
      <trkpt lat="44.72249" lon="3.85564">
        <ele>930.59356689453</ele>
        <time>2020-10-16T08:57:47.452Z</time>
      </trkpt>
      <trkpt lat="44.72301" lon="3.85628">
        <ele>927.78076171875</ele>
        <time>2020-10-16T08:57:49.878Z</time>
      </trkpt>
      <trkpt lat="44.72306" lon="3.85627">
        <ele>927.7421875</ele>
        <time>2020-10-16T08:57:52.305Z</time>
      </trkpt>
      <trkpt lat="44.72331" lon="3.85622">
        <ele>925.23516845703</ele>
        <time>2020-10-16T08:57:54.737Z</time>
      </trkpt>
      <trkpt lat="44.72316" lon="3.85575">
        <ele>923.79595947266</ele>
        <time>2020-10-16T08:57:57.177Z</time>
      </trkpt>
      <trkpt lat="44.72278" lon="3.85529">
        <ele>926.26745605469</ele>
        <time>2020-10-16T08:57:59.627Z</time>
      </trkpt>
      <trkpt lat="44.72272" lon="3.85497">
        <ele>926.18157958984</ele>
        <time>2020-10-16T08:58:02.082Z</time>
      </trkpt>
      <trkpt lat="44.72271" lon="3.8542">
        <ele>922.84338378906</ele>
        <time>2020-10-16T08:58:04.548Z</time>
      </trkpt>
      <trkpt lat="44.72277" lon="3.85381">
        <ele>919.29058837891</ele>
        <time>2020-10-16T08:58:07.019Z</time>
      </trkpt>
      <trkpt lat="44.72289" lon="3.85363">
        <ele>916.31378173828</ele>
        <time>2020-10-16T08:58:09.494Z</time>
      </trkpt>
      <trkpt lat="44.72305" lon="3.85358">
        <ele>915.34020996094</ele>
        <time>2020-10-16T08:58:11.972Z</time>
      </trkpt>
      <trkpt lat="44.72319" lon="3.85363">
        <ele>914.78674316406</ele>
        <time>2020-10-16T08:58:14.453Z</time>
      </trkpt>
      <trkpt lat="44.72357" lon="3.85407">
        <ele>912.86785888672</ele>
        <time>2020-10-16T08:58:16.944Z</time>
      </trkpt>
    </trkseg>
  </trk>
</gpx>